[[{"header":{"parameterUnit":"m.s-1","parameterCategory":1,"la1":30.2991,"la2":30.254,"lo1":-89.0895,"lo2":-89.0444,"dy":0.0017,"dx":0.0017,"nx":28,"ny":28,"refTime":"2025-09-15T09:00:00:Z","depth":0,"parameterNumber":2,"parameterNumberName":"U-component_of_WINDS"},"data":[0,0,0,0,0,0,0,0,0,0,0,0,0,0,0,0,0,0,0,0,0,0,0,0,0,0,0,0,0,0,0,0,0,0,0,0,0,0,0,0,0,0,0,0,0,0,0,0,0,0,0,0,0,0,0,0,0,0,-0.7122,-0.7122,0,-0.7142,-0.7142,-0.7142,-0.7127,-0.7126,-0.7126,-0.7125,-0.7147,-0.7148,-0.715,0,0,0,0,0,0,0,0,0,0,0,0,0,-0.7071,-0.7072,-0.7122,-0.7122,-0.7122,-0.7142,-0.7142,-0.7143,-0.7127,-0.7126,-0.7125,-0.7125,-0.7147,-0.7148,-0.715,0,0,0,0,0,0,0,0,0,0,0,0,0,-0.7093,-0.7073,-0.7122,-0.7117,-0.7117,-0.7142,-0.7142,-0.7143,-0.7127,-0.7126,-0.7125,-0.7124,-0.7146,-0.7148,-0.715,-0.7182,0,0,-0.7156,-0.7156,0,0,0,0,0,0,0,0,-0.7091,-0.7095,-0.7117,-0.7117,-0.7117,-0.7131,-0.7133,-0.7156,-0.7128,-0.7123,-0.7125,-0.7124,-0.7143,-0.7145,-0.7151,-0.7183,-0.7184,-0.7156,-0.7157,-0.7158,-0.7158,0,0,0,0,0,0,0,-0.709,-0.7094,-0.713,-0.7118,-0.7117,-0.7114,-0.7116,-0.7137,-0.7139,-0.7124,-0.7122,-0.7125,-0.7142,-0.7149,-0.7151,-0.7184,-0.7156,-0.7157,-0.7159,-0.7159,-0.7244,-0.7245,0,0,0,0,0,0,-0.7089,-0.7092,-0.7129,-0.713,-0.7101,-0.7116,-0.7118,-0.7127,-0.7138,-0.7139,-0.7126,-0.7124,-0.7147,-0.7149,-0.7152,-0.7191,-0.7158,-0.7159,-0.716,-0.7243,-0.7244,-0.7245,0,0,0,0,0,0,-0.7088,-0.7092,-0.7128,-0.7111,-0.7115,-0.7118,-0.7129,-0.7128,-0.7135,-0.714,-0.714,-0.7132,-0.7146,-0.7149,-0.7175,-0.7191,-0.716,-0.7162,-0.7241,-0.7243,-0.7245,-0.7267,0,0,0,0,0,0,-0.7086,-0.7092,-0.7103,-0.7111,-0.7116,-0.715,-0.713,-0.713,-0.7138,-0.7136,-0.7146,-0.7147,-0.7145,-0.7172,-0.7176,-0.7193,-0.7163,-0.724,-0.7242,-0.7244,-0.7265,-0.727,-0.7273,0,0,0,0,0,-0.7085,-0.7109,-0.7104,-0.7109,-0.7131,-0.7151,-0.7154,-0.7151,-0.7139,-0.7152,-0.7155,-0.7146,-0.7188,-0.7175,-0.7179,-0.7197,-0.7239,-0.7241,-0.7244,-0.7263,-0.7269,-0.7273,0,0,0,0,0,0,-0.7104,-0.711,-0.7105,-0.7132,-0.7141,-0.7148,-0.7163,-0.7157,-0.717,-0.7167,-0.7164,-0.7166,-0.7193,-0.7197,-0.7182,-0.7229,-0.7212,-0.7216,-0.7225,-0.723,-0.7234,-0.7233,-0.7165,0,0,0,0,0,-0.7111,-0.7126,-0.7131,-0.7155,-0.716,-0.7161,-0.7169,-0.7167,-0.7176,-0.718,-0.7185,-0.7194,-0.721,-0.722,-0.7234,-0.7266,-0.7268,-0.728,-0.7284,-0.7288,-0.7291,-0.7309,-0.7314,-0.7254,-0.7254,-0.7254,0,0,-0.7126,-0.7132,-0.7142,-0.7159,-0.7166,-0.7182,-0.7164,-0.7182,-0.7195,-0.7183,-0.7207,-0.7211,-0.7221,-0.725,-0.7263,-0.7254,-0.7308,-0.7291,-0.7294,-0.7295,-0.7312,-0.7318,-0.7323,-0.7255,-0.7255,-0.7255,0,0,-0.7163,-0.7168,-0.7189,-0.7196,-0.7206,-0.7207,-0.7212,-0.722,-0.7222,-0.7246,-0.7238,-0.7252,-0.7279,-0.7287,-0.7295,-0.7335,-0.7328,-0.734,-0.7362,-0.7379,-0.7384,-0.7388,-0.7403,-0.7409,-0.7343,-0.7343,-0.7343,0,-0.7181,-0.7205,-0.7201,-0.722,-0.7228,-0.7218,-0.7239,-0.7246,-0.7261,-0.7267,-0.7257,-0.7291,-0.7297,-0.7328,-0.7338,-0.7344,-0.735,-0.7339,-0.7383,-0.7388,-0.7392,-0.7406,-0.7412,-0.7345,-0.7344,-0.7344,-0.7344,0,-0.7227,-0.7244,-0.726,-0.7274,-0.7284,-0.7304,-0.7304,-0.7315,-0.7311,-0.7313,-0.7338,-0.7345,-0.7361,-0.7368,-0.7365,-0.7399,-0.7393,-0.7384,-0.7367,-0.7399,-0.7412,-0.7418,-0.7347,-0.7346,-0.7346,-0.7345,0,0,-0.7277,-0.7288,-0.7294,-0.7301,-0.7311,-0.7324,-0.7344,-0.7359,-0.7369,-0.7379,-0.7397,-0.742,-0.7411,-0.742,-0.7417,-0.7432,-0.7465,-0.7421,-0.7421,-0.7429,-0.7503,-0.7511,-0.7518,-0.746,-0.7461,-0.7462,-0.7503,0,-0.7315,-0.7349,-0.7346,-0.7379,-0.7395,-0.7385,-0.7403,-0.7412,-0.7414,-0.7428,-0.7431,-0.7448,-0.7434,-0.744,-0.7454,-0.7458,-0.748,-0.7455,-0.7477,-0.7478,-0.7475,-0.7525,-0.7533,-0.7571,-0.7508,-0.7509,-0.751,0,-0.7364,-0.7375,-0.741,-0.7418,-0.7425,-0.744,-0.7455,-0.7468,-0.7478,-0.7479,-0.7489,-0.7484,-0.7505,-0.7487,-0.7517,-0.75,-0.7509,-0.7512,-0.7513,-0.7516,-0.7496,-0.753,-0.7583,-0.7589,-0.7518,-0.7517,-0.7517,0,-0.7398,-0.7422,-0.7446,-0.7451,-0.7462,-0.7473,-0.7478,-0.7487,-0.7496,-0.7509,-0.7515,-0.753,-0.7539,-0.7551,-0.755,-0.7537,-0.7581,-0.7562,-0.7583,-0.7583,-0.7593,-0.7592,-0.765,-0.7597,-0.7597,-0.7597,-0.7597,0,-0.7441,-0.7462,-0.7461,-0.7476,-0.75,-0.7497,-0.7521,-0.7525,-0.7533,-0.7549,-0.7541,-0.7556,-0.7555,-0.757,-0.757,-0.7595,-0.7599,-0.7601,-0.7601,-0.7602,-0.7602,-0.7608,-0.7606,-0.7598,-0.7598,-0.7598,-0.7598,0,-0.7483,-0.7483,-0.7508,-0.7516,-0.7518,-0.7536,-0.7543,-0.7557,-0.7558,-0.7579,-0.7583,-0.7586,-0.7604,-0.7605,-0.7626,-0.7626,-0.7656,-0.7653,-0.7653,-0.7653,-0.7673,-0.7671,-0.7737,-0.7746,-0.7687,-0.7688,-0.7688,0,-0.7511,-0.7527,-0.7536,-0.7546,-0.7552,-0.7568,-0.7577,-0.7575,-0.7585,-0.7598,-0.7611,-0.7628,-0.7642,-0.7671,-0.7676,-0.7692,-0.7689,-0.7711,-0.7692,-0.7693,-0.7691,-0.769,-0.7692,-0.7715,-0.7716,-0.7716,-0.7717,0,-0.7561,-0.756,-0.7574,-0.7588,-0.76,-0.7611,-0.7621,-0.763,-0.7629,-0.7641,-0.7659,-0.767,-0.7691,-0.7708,-0.7724,-0.773,-0.7724,-0.7723,-0.7729,-0.773,-0.773,-0.7732,-0.7664,-0.7722,-0.7721,-0.7721,-0.772,-0.772,-0.7598,-0.7612,-0.7621,-0.7637,-0.7644,-0.7654,-0.7668,-0.7671,-0.7686,-0.7703,-0.77,-0.7721,-0.7731,-0.7751,-0.7758,-0.7775,-0.7767,-0.7775,-0.7777,-0.778,-0.7782,-0.7727,-0.7777,-0.7777,-0.7777,-0.7777,-0.7777,0,-0.7649,-0.7654,-0.7668,-0.7683,-0.7695,-0.7687,-0.7698,-0.771,-0.7728,-0.7737,-0.7751,-0.7772,-0.7789,-0.7795,-0.7811,-0.7823,-0.7821,-0.7828,-0.7828,-0.7829,-0.7788,-0.7781,-0.783,-0.783,-0.783,-0.783,-0.783,-0.783,-0.7677,-0.7701,-0.7701,-0.7729,-0.7734,-0.7753,-0.776,-0.777,-0.7777,-0.7801,-0.7815,-0.7818,-0.7827,-0.7844,-0.7859,-0.7861,-0.7868,-0.7876,-0.7876,-0.7837,-0.7832,-0.7827,-0.7821,-0.7877,-0.7877,-0.7917,-0.7917,-0.7917]},{"header":{"parameterUnit":"m.s-1","parameterCategory":1,"la1":30.2991,"la2":30.254,"lo1":-89.0895,"lo2":-89.0444,"dy":0.0017,"dx":0.0017,"nx":28,"ny":28,"refTime":"2025-09-15T09:00:00:Z","depth":0,"parameterNumber":3,"parameterNumberName":"V-component_of_WINDS"},"data":[0,0,0,0,0,0,0,0,0,0,0,0,0,0,0,0,0,0,0,0,0,0,0,0,0,0,0,0,0,0,0,0,0,0,0,0,0,0,0,0,0,0,0,0,0,0,0,0,0,0,0,0,0,0,0,0,0,0,4.1409,4.1409,0,4.144,4.144,4.1441,4.1385,4.1383,4.1381,4.1379,4.1407,4.141,4.1412,0,0,0,0,0,0,0,0,0,0,0,0,0,4.1296,4.1298,4.1409,4.1409,4.1409,4.144,4.144,4.1441,4.1385,4.1383,4.138,4.1378,4.1406,4.1409,4.1412,0,0,0,0,0,0,0,0,0,0,0,0,0,4.1338,4.1299,4.1409,4.1385,4.1384,4.144,4.144,4.1441,4.1385,4.1383,4.138,4.1377,4.1405,4.1409,4.1413,4.1492,0,0,4.1424,4.1426,0,0,0,0,0,0,0,0,4.1335,4.1342,4.1388,4.1387,4.1385,4.1406,4.1411,4.1458,4.1386,4.1385,4.1379,4.1376,4.1409,4.1412,4.1424,4.1493,4.1494,4.1424,4.1427,4.1428,4.1429,0,0,0,0,0,0,0,4.1332,4.134,4.1421,4.1389,4.1387,4.1372,4.1375,4.1419,4.1412,4.1384,4.1381,4.1385,4.1407,4.142,4.1424,4.1495,4.1424,4.1428,4.143,4.1431,4.1629,4.1632,0,0,0,0,0,0,4.1333,4.1338,4.142,4.1422,4.1353,4.1376,4.1379,4.1402,4.1411,4.141,4.1388,4.1382,4.1415,4.142,4.1425,4.1517,4.1428,4.1432,4.1434,4.1626,4.1629,4.1633,0,0,0,0,0,0,4.1331,4.1341,4.1419,4.1379,4.1388,4.1381,4.1407,4.1404,4.1417,4.1414,4.1411,4.1403,4.1413,4.142,4.1475,4.1517,4.1433,4.1437,4.1622,4.1627,4.1631,4.1702,0,0,0,0,0,0,4.1328,4.134,4.1372,4.138,4.139,4.147,4.1409,4.1407,4.1424,4.1418,4.1427,4.1426,4.1412,4.147,4.1479,4.152,4.144,4.1618,4.1624,4.163,4.1696,4.1708,4.1719,0,0,0,0,0,4.1324,4.139,4.1373,4.1384,4.1429,4.1473,4.1478,4.1461,4.1428,4.1458,4.1456,4.1426,4.1511,4.1476,4.1486,4.1529,4.1616,4.1623,4.1629,4.169,4.1706,4.1719,0,0,0,0,0,0,4.1385,4.139,4.1372,4.1443,4.1458,4.1463,4.1501,4.1478,4.1502,4.1495,4.1472,4.1474,4.1534,4.1537,4.1499,4.1605,4.1558,4.1567,4.1601,4.1615,4.1627,4.1624,4.1443,0,0,0,0,0,4.1407,4.1444,4.1446,4.1508,4.1517,4.1508,4.1526,4.1512,4.1526,4.1532,4.1533,4.1547,4.1576,4.1596,4.1624,4.1697,4.1696,4.1731,4.1742,4.1752,4.1759,4.1796,4.1811,4.1655,4.1655,4.1655,0,0,4.1452,4.146,4.1484,4.1521,4.153,4.1567,4.1513,4.1555,4.1581,4.1537,4.159,4.1592,4.1605,4.167,4.1698,4.1674,4.1803,4.176,4.1768,4.177,4.1804,4.1819,4.1832,4.1659,4.1659,4.1658,0,0,4.1553,4.1563,4.1615,4.1627,4.1643,4.1636,4.1649,4.1658,4.1657,4.171,4.1678,4.1708,4.1761,4.1771,4.1783,4.1887,4.186,4.1897,4.1957,4.1993,4.2005,4.2016,4.2051,4.2064,4.1905,4.1905,4.1905,0,4.1606,4.1662,4.1645,4.1688,4.1704,4.1668,4.1719,4.1731,4.1754,4.1765,4.1739,4.1803,4.1809,4.1874,4.19,4.1912,4.1924,4.1895,4.2005,4.2016,4.2025,4.2059,4.2072,4.1909,4.1909,4.1908,4.1908,0,4.1726,4.1765,4.1805,4.1829,4.185,4.1897,4.1886,4.1909,4.1893,4.1889,4.1942,4.1949,4.1976,4.1991,4.1976,4.2054,4.2038,4.2009,4.196,4.2045,4.2075,4.2088,4.1915,4.1914,4.1912,4.1911,0,0,4.1865,4.188,4.1895,4.1905,4.192,4.1948,4.1993,4.2021,4.204,4.2058,4.2093,4.2139,4.2111,4.2125,4.211,4.2143,4.2222,4.2109,4.2109,4.2128,4.2307,4.2328,4.2343,4.2205,4.2208,4.221,4.2305,0,4.1963,4.2042,4.2028,4.2104,4.2138,4.2104,4.2143,4.2155,4.2153,4.218,4.2177,4.2209,4.2171,4.2179,4.2209,4.2206,4.2258,4.22,4.2236,4.2238,4.2232,4.2359,4.2382,4.2471,4.2317,4.2319,4.2321,0,4.2089,4.2112,4.2191,4.22,4.2213,4.2249,4.2272,4.23,4.2313,4.2309,4.2324,4.2304,4.2346,4.2299,4.2357,4.2317,4.2332,4.2332,4.2335,4.2336,4.2283,4.2362,4.25,4.2513,4.234,4.2338,4.2337,0,4.2179,4.223,4.2284,4.2294,4.2306,4.2331,4.2337,4.2347,4.2364,4.2385,4.2395,4.2421,4.2434,4.2453,4.2439,4.2406,4.2498,4.245,4.2494,4.2494,4.2513,4.2512,4.2654,4.2526,4.2526,4.2526,4.2526,0,4.229,4.2339,4.2325,4.2358,4.2412,4.2394,4.2448,4.2449,4.2459,4.249,4.2462,4.2492,4.2472,4.25,4.2489,4.2538,4.2544,4.2541,4.2537,4.2542,4.2542,4.255,4.2542,4.2529,4.2529,4.2528,4.2527,0,4.24,4.2393,4.2448,4.2455,4.2458,4.2497,4.2502,4.2532,4.2527,4.2567,4.2576,4.2568,4.2599,4.2588,4.2621,4.2614,4.2675,4.2664,4.2671,4.2667,4.2712,4.2707,4.2861,4.288,4.2742,4.2744,4.2745,0,4.247,4.2507,4.2518,4.2537,4.2545,4.2577,4.2595,4.2579,4.2598,4.2615,4.2643,4.2672,4.2694,4.2745,4.2741,4.2766,4.2754,4.2807,4.2758,4.2761,4.2753,4.275,4.2753,4.2816,4.2817,4.2819,4.282,0,4.2594,4.2588,4.2616,4.2641,4.2663,4.2683,4.2699,4.2717,4.2701,4.2724,4.2756,4.2773,4.2807,4.2836,4.2858,4.2862,4.2838,4.2836,4.2847,4.2852,4.2853,4.2851,4.2695,4.2832,4.283,4.283,4.2829,4.2828,4.2685,4.2716,4.2728,4.2759,4.277,4.2786,4.2814,4.2813,4.284,4.2867,4.2856,4.2892,4.2903,4.293,4.2938,4.2965,4.2944,4.2961,4.2965,4.2969,4.2974,4.2851,4.2969,4.2969,4.2968,4.2968,4.2968,0,4.2806,4.2812,4.2841,4.2865,4.2889,4.2866,4.2883,4.2904,4.2936,4.2949,4.2972,4.3008,4.3035,4.3034,4.3059,4.3081,4.307,4.3088,4.3085,4.3086,4.2992,4.2978,4.3096,4.3096,4.3096,4.3096,4.3096,4.3096,4.2871,4.2922,4.2918,4.2973,4.2979,4.3015,4.3026,4.304,4.305,4.3092,4.3115,4.3115,4.3121,4.3146,4.317,4.3169,4.3178,4.32,4.3194,4.3106,4.3093,4.3081,4.3068,4.3203,4.3203,4.3286,4.3287,4.3288]}]]